EW6230 Weather Reports


time (UTC)temp
F
wind
direction
speed
knots
gust
knots
rain 1hr
in
rain 24hr
in
rain mn
in
humidity
%
barometer
mb
20260903033010 55 239 0.0 0.0 0.00 0.00 0.00 1 999.8
20260903031505 55 238 0.0 0.0 0.00 0.00 0.00 1 999.3
20260903030004 56 241 0.0 0.9 0.00 0.00 0.00 1 998.9
20260903024556 57 235 0.0 0.9 0.00 0.00 0.00 1 998.7
20260903023055 57 237 0.0 0.9 0.00 0.00 0.00 1 998.7
20260903021604 57 237 0.0 0.9 0.00 0.00 0.00 1 998.4
20260903020043 58 233 0.0 0.0 0.00 0.00 0.00 1 998.2
20260903014543 58 233 0.0 0.0 0.00 0.00 0.00 1 998.0
20260903013034 59 233 0.0 0.0 0.00 0.00 0.00 1 997.6
20260903011540 59 233 0.0 0.9 0.00 0.00 0.00 1 997.1
20260903010029 59 226 0.0 0.9 0.00 0.00 0.00 1 997.0
20260903004531 59 200 0.0 0.9 0.00 0.00 0.00 1 996.5
20260903003021 59 160 0.0 0.0 0.00 0.00 0.00 1 996.2
20260903001516 60 160 0.0 0.9 0.00 0.00 0.00 1 996.0
20260903000011 61 251 0.0 0.0 0.00 0.00 0.00 1 996.1
20260902234507 61 252 0.0 0.0 0.00 0.00 0.00 1 996.1
20260902233006 61 252 0.0 0.0 0.00 0.00 0.00 1 996.1
20260902231558 61 251 0.0 0.9 0.00 0.00 0.00 18 996.5
20260902230053 61 255 0.0 0.0 0.00 0.00 0.00 44 996.9
20260902224549 61 227 0.0 0.0 0.00 0.00 0.00 29 996.6
20260902223045 61 227 0.0 0.0 0.00 0.00 0.00 32 996.6
20260902221540 62 227 0.0 0.0 0.00 0.00 0.00 32 996.5
20260902220035 62 227 0.0 0.0 0.00 0.00 0.00 42 996.6
20260902214531 62 227 0.0 0.0 0.00 0.00 0.00 44 996.7
20260902213026 63 227 0.0 0.0 0.00 0.00 0.00 50 997.0
20260902211522 63 227 0.0 0.0 0.00 0.00 0.00 52 997.2
20260902210018 64 227 0.0 0.0 0.00 0.00 0.00 55 997.3
20260902204524 65 227 0.0 0.0 0.00 0.00 0.00 55 997.5
20260902203008 64 227 0.0 0.0 0.00 0.00 0.00 45 997.6
20260902201506 62 227 0.0 0.0 0.00 0.00 0.00 25 997.7
20260902200117 61 227 0.0 0.0 0.00 0.00 0.00 23 997.9
20260902194559 61 227 0.0 0.0 0.00 0.00 0.00 17 998.2
20260902193051 61 227 0.0 0.0 0.00 0.00 0.00 15 998.4
20260902191549 61 227 0.0 0.0 0.00 0.00 0.00 9 998.6
20260902190042 60 226 0.0 0.0 0.00 0.00 0.00 6 998.6
20260902184538 60 226 0.0 0.0 0.00 0.00 0.00 12 998.9
20260902183043 60 226 0.0 0.0 0.00 0.00 0.00 15 999.1
20260902181526 61 226 0.0 0.0 0.00 0.00 0.00 10 999.2
20260902180022 61 226 0.0 0.0 0.00 0.00 0.00 9 999.4
20260902174518 61 224 0.0 0.0 0.00 0.00 0.00 15 999.6
20260902173013 61 236 0.0 0.0 0.00 0.00 0.00 2 999.6
20260902171508 60 236 0.0 0.0 0.00 0.00 0.00 1 999.7
20260902170008 60 236 0.0 0.0 0.00 0.00 0.00 1 999.9
20260902164605 59 236 0.0 0.0 0.00 0.00 0.00 1 1000.0
20260902163055 59 236 0.0 0.0 0.00 0.00 0.00 1 1000.2
20260902161559 58 236 0.0 0.0 0.00 0.00 0.00 1 1000.4
20260902160048 57 236 0.0 0.0 0.00 0.00 0.00 1 1000.5
20260902154557 57 236 0.0 0.0 0.00 0.00 0.00 1 1000.6
20260902153039 57 236 0.0 0.0 0.00 0.00 0.00 1 1000.7
20260902151534 56 236 0.0 0.0 0.00 0.00 0.00 1 1000.6
20260902150030 56 236 0.0 0.0 0.00 0.00 0.00 1 1000.8
20260902144523 55 236 0.0 0.0 0.00 0.00 0.00 1 1000.9
20260902143023 55 236 0.0 0.0 0.00 0.00 0.00 1 1000.9
20260902141523 55 236 0.0 0.0 0.00 0.00 0.00 1 1001.0
20260902140016 0 0.0 0.0 0.00 0.00 0.00 1000.9
20260902134506 0 0.0 0.0 0.00 0.00 0.00 1001.1
20260902133002 0 0.0 0.0 0.00 0.00 0.00 1001.1
20260902131557 0 0.0 0.0 0.00 0.00 0.00 1001.2
20260902130054 0 0.0 0.0 0.00 0.00 0.00 1001.2
20260902124553 0 0.0 0.0 0.00 0.00 0.00 1001.2
20260902123044 -90 232 0.0 0.0 0.00 0.00 0.00 1 1001.4
20260902121544 54 238 0.0 0.0 0.00 0.00 0.00 1 1001.5
20260902120035 54 238 0.0 0.0 0.00 0.00 0.00 1 1001.7
20260902114531 55 238 0.0 0.0 0.00 0.00 0.00 1 1001.8
20260902113026 55 238 0.0 0.0 0.00 0.00 0.00 1 1001.9
20260902111523 55 238 0.0 0.0 0.00 0.00 0.00 1 1002.1
20260902110017 55 238 0.0 0.0 0.00 0.00 0.00 1 1002.2
20260902104515 55 238 0.0 0.0 0.00 0.00 0.00 1 1002.3
20260902103008 55 238 0.0 0.0 0.00 0.00 0.00 1 1002.4
20260902101512 55 238 0.0 0.0 0.00 0.00 0.00 1 1002.6
20260902100101 55 238 0.0 0.0 0.00 0.00 0.00 1 1002.7
20260902094555 55 238 0.0 0.0 0.00 0.00 0.00 1 1003.0
20260902093118 55 238 0.0 0.0 0.00 0.00 0.00 1 1003.1
20260902091553 55 238 0.0 0.0 0.00 0.00 0.00 1 1003.4
20260902090048 55 238 0.0 0.0 0.00 0.00 0.00 1 1003.4
20260902084550 55 238 0.0 0.0 0.00 0.00 0.00 1 1003.5
20260902083046 55 238 0.0 0.0 0.00 0.00 0.00 1 1003.6
20260902081533 55 238 0.0 0.0 0.00 0.00 0.00 1 1003.6
20260902080028 55 238 0.0 0.0 0.00 0.00 0.00 1 1003.8
20260902074524 55 238 0.0 0.0 0.00 0.00 0.00 1 1003.9
20260902073019 56 238 0.0 0.0 0.00 0.00 0.00 1 1004.1
20260902071514 56 238 0.0 0.0 0.00 0.00 0.00 1 1004.3
20260902070010 57 238 0.0 0.0 0.00 0.00 0.00 1 1004.3
20260902064511 57 238 0.0 0.9 0.00 0.00 0.00 1 1004.4
20260902063001 58 238 0.0 0.0 0.00 0.00 0.00 1 1004.5
20260902061557 58 238 0.0 0.0 0.00 0.00 0.00 1 1004.5
20260902060105 58 238 0.0 0.0 0.00 0.00 0.00 1 1004.6
20260902054548 59 229 0.0 0.9 0.00 0.00 0.00 5 1004.7
20260902053044 59 229 0.0 0.0 0.00 0.00 0.00 10 1004.8
20260902051542 60 229 0.0 0.0 0.00 0.00 0.00 12 1004.9
20260902050042 60 229 0.0 0.0 0.00 0.00 0.00 14 1005.0
20260902044531 60 229 0.0 0.0 0.00 0.00 0.00 15 1005.1
20260902043026 60 229 0.0 0.0 0.00 0.00 0.00 17 1005.1
20260902041522 60 229 0.0 0.0 0.00 0.00 0.00 21 1005.2
20260902040018 60 229 0.0 0.0 0.00 0.00 0.00 27 1005.2
20260902034514 60 229 0.0 0.0 0.00 0.00 0.00 23 1005.1